TITAN 3C TRANSTAGE DEB, 27791

Orbit data source: Space-Track

TITAN 3C TRANSTAGE DEB, 27791 is space debris in HEO originally from a launch on Tue, 21 Dec 1965 UTC launched from the Air Force Eastern Test Range (AFETR). Debris objects in space refer to the collection of defunct objects orbiting the Earth. Examples of debris include non-operational satellites, rocket bodies, and fragments generated from explosions, collisions, or faulty payload assembly.

Loading next visibility...
Identifier
27791, 1965-108BF
Orbit
HEO
Country
Flag of USUS
Related business
Manufacturer
Unknown
Mission
Spacecraft
Bus & Motor
Unknown
Mass
Unknown
Launch date (UTC)
1965-12-21 (60 years ago)
Launch vehicle
Unknown
Launch site
Air Force Eastern Test Range (AFETR)
Object type
Payload
Rocket body
Debris
Shape & HBR
Unknown shape, 1.1 m
Radar Cross Section
Small (<0.1 m²)

Expand to show TLE details & history
Last TLE update: 5 days ago

TLE from 5 days ago
0 TITAN 3C TRANSTAGE DEB
1 27791U 65108BF  26115.81500685  .00000376  00000-0  13511-1 0  9992
2 27791  26.5454 229.9584 6774773 197.7985 116.2762  2.63394710  2259
Epoch: 2026-04-25T19:33Z
TLE epoch observation values (Epoch: 2026-04-25T19:33:36.591Z)
Latitude
0.0001°
Longitude
82.74112°
Altitude
27,408.756 km
Speed
2.366 km/s
True Right ascension
15h 19m 53s
True Declination
0° 00' 00"
Sunlit
Object was in daylight at epoch
Visualization orbit readout
Latitude
Unknown
Longitude
Unknown
Altitude
Unknown
Speed
Unknown
Apparent Right ascension
Unknown
Apparent Declination
Unknown
Sunlit
N/A
Visualization observer readout
Local Sidereal Time
21:08:04
Azimuth
Unknown
Elevation
Unknown
Doppler factor
Unknown
Orbital elements
Apogee altitude
30,780.179 km
Perigee altitude
766.163 km
Semi-major axis
22,151.308 km
Eccentricity
0.67748
Inclination
26.5454°
RAAN
229.9584°
Arg. of periapsis
197.7985°
True anomaly
162.25437°
Mean anomaly
116.2762°
Eccentric anomaly
140.80618°
Mean motion
0.65833 °/min
Orbital period
546.84 mins
BSTAR
0.013511
Loading maneuver chart data...
Computing Atmospheric mass density...

Documentation

Showing up to 5 results
|